Weather in Arkhangelskoe

Russia / Tula Oblast     53°15′50″N   37°42′00″E
temp.,
°C
wind,
m/s
gust,
m/s
humid.,
%
clouds,
%
prec.,
mm/h
press.,
hPa
HPBL,
m
15 may, sat
sat1500:00+15sse3794100 2.8 1009133
03:00+15sse359766 3.3 1009100
06:00+15s369714 0.0 1008140
09:00+19ssw6117592 0.0 1010644
12:00+20ssw6963100 0.0 10111175
15:00+21ssw79575 0.0 10101675
18:00+19ssw611713 0.9 1011895
21:00+15ssw412875 0.9 1012348
16 may, sun
sun1600:00+13ssw39930 0.0 1013191
03:00+12ssw36945 0.0 1014109
06:00+12ssw24905 0.0 1014117
09:00+18s457142 0.0 1014468
12:00+21s57602 0.2 10141327
15:00+22sw475592 0.6 10141669
18:00+21wsw2470100 0.0 1014387
21:00+16ne117512 0.0 101411
17 may, mon
mon1700:00+15ene348122 0.0 101452
03:00+13e398592 0.2 1014150
06:00+14e5129139 0.4 1013281
09:00+19e6107563 0.4 1012420
12:00+24ese68580 0.0 1011789
15:00+25ese611575 0.0 10101402
18:00+23ese7146434 0.0 1009659
21:00+19ese6167990 0.0 1009433
18 may, tue
tue1800:00+17se5157652 0.0 1008386
03:00+15se5127829 0.0 1008265
06:00+14ese4982100 0.0 1008199
09:00+19se61071100 0.0 1007452
12:00+23se7116153 0.0 10071034
15:00+24se7115892 0.0 10061720
18:00+20s6107642 0.5 1006745
21:00+15sse311917 1.1 1006329
19 may, wed
wed1900:00+15sse5129466 0.0 1006373
03:00+14se5119612 0.0 1006325
06:00+14sse61095100 1.2 1006546
09:00+15sw6879100 1.8 1008848
12:00+16ssw7967100 0.3 10081429
15:00+18sw795792 0.4 10091884
18:00+16ssw610690 0.2 10091284
21:00+13s513785 0.3 1010386